This is the latest recevied weather packets stored in our database for station/object W2TAO. If no packets are shown the sender has not sent any weather packets the latest 1 day(s).
| Time | Temp. | Humidity | Pressure | Rain* | Wind** | Luminosity | Snow |
|---|---|---|---|---|---|---|---|
| 1836274663 | 11.67° C | 76% | 1022.5 hPa | 0 mm | 0 m/s | 0 W/m² | - |
| 1836274516 | 11.11° C | 80% | 1022.4 hPa | 0 mm | 0.45 m/s, 276° | 0 W/m² | - |
| 1836274361 | 11.67° C | 74% | 1022.5 hPa | 0 mm | 0 m/s | 0 W/m² | - |
| 1836274214 | 11.11° C | 79% | 1022.5 hPa | 0 mm | 0 m/s | 0 W/m² | - |
| 1836274059 | 11.67° C | 75% | 1022.4 hPa | 0 mm | 0 m/s | 0 W/m² | - |
| 1778035542 | 20° C | 51% | 1010.5 hPa | 0 mm | 1.34 m/s, 192° | 0 W/m² | - |
| 1778035238 | 20° C | 52% | 1010.8 hPa | 0 mm | 0.45 m/s, 217° | 0 W/m² | - |
| 1778034934 | 20.56° C | 49% | 1010.8 hPa | 0 mm | 0 m/s | 0 W/m² | - |
| 1778034635 | 20.56° C | 50% | 1010.6 hPa | 0 mm | 0 m/s | 0 W/m² | - |
| 1778034329 | 20.56° C | 50% | 1010.7 hPa | 0 mm | 0.89 m/s, 228° | 0 W/m² | - |
| 1778034026 | 20.56° C | 49% | 1010.6 hPa | 0 mm | 0.45 m/s, 195° | 0 W/m² | - |
| 1778033724 | 21.11° C | 49% | 1010.5 hPa | 0 mm | 0.45 m/s, 221° | 0 W/m² | - |
| 1778033421 | 21.11° C | 47% | 1010.6 hPa | 0 mm | 1.34 m/s, 248° | 0 W/m² | - |
| 1778033118 | 21.11° C | 48% | 1010.5 hPa | 0 mm | 0.89 m/s, 111° | 0 W/m² | - |
| 1778032816 | 21.11° C | 48% | 1010.7 hPa | 0 mm | 2.24 m/s, 230° | 0 W/m² | - |
| 1778032513 | 21.11° C | 48% | 1010.4 hPa | 0 mm | 3.58 m/s, 121° | 0 W/m² | - |
| 1778032210 | 21.11° C | 47% | 1010.4 hPa | 0 mm | 0.89 m/s, 229° | 0 W/m² | - |
| 1778031907 | 21.11° C | 47% | 1010.2 hPa | 0 mm | 2.24 m/s, 235° | 0 W/m² | - |
| 1778031603 | 21.67° C | 47% | 1010.3 hPa | 0 mm | 0.89 m/s, 222° | 0 W/m² | - |
| 1778031301 | 21.67° C | 47% | 1010 hPa | 0 mm | 0.45 m/s, 126° | 0 W/m² | - |
| 1778030997 | 21.67° C | 46% | 1010.2 hPa | 0 mm | 2.68 m/s, 225° | 0 W/m² | - |
| 1778030693 | 21.67° C | 47% | 1010.2 hPa | 0 mm | 1.34 m/s, 211° | 0 W/m² | - |
| 1778030391 | 21.67° C | 47% | 1009.9 hPa | 0 mm | 1.79 m/s, 234° | 0 W/m² | - |
| 1778030088 | 21.67° C | 48% | 1010 hPa | 0 mm | 0 m/s | 0 W/m² | - |
| 1778029784 | 21.67° C | 46% | 1010.1 hPa | 0 mm | 0 m/s | 0 W/m² | - |
* Rain latest hour (hover to see other rain measurements)
** Current wind speed in m/s (hover to see current wind gust speed)